Location: ???????
(55.4362°N, 38.1183°E)
Time: 03:11:16
(UTC+00:00)

OPS 8737 - Pass Details

Date: 17 June 2021
Orbit: 355 x 1710 km, 63.3° (Epoch: 17 July)

Event Time Altitude Azimuth Distance (km) Brightness Sun altitude
Rises 20:08:28 0° 222° (SW) 2,732 8.1 -9.3°
Reaches altitude 10° 20:10:55 10° 220° (SW) 1,674 7.0 -9.4°
Maximum altitude 20:14:28 65° 138° (SE) 457 4.2 -9.6°
Drops below altitude 10° 20:17:23 10° 56° (NE) 1,384 7.1 -9.7°
Sets 20:19:15 0° 53° (NE) 2,199 8.2 -9.8°
